Location: Pilipovskiye Korichintsy
(49.1833°N, 27.4667°E)
Time: 22:37:59
(UTC+00:00)

Cosmos 1190 Rocket - Pass Details

Date: 14 July 2020
Orbit: 756 x 781 km, 74.1° (Epoch: 10 August)

Event Time Altitude Azimuth Distance (km) Brightness Sun altitude
Exits shadow 00:26:21 20° 210° (SSW) 1,713 5.2 -13.5°
Maximum altitude 00:30:01 76° 294° (WNW) 794 4.0 -13.2°
Drops below altitude 10° 00:35:17 10° 21° (NNE) 2,322 7.9 -12.7°
Sets 00:37:42 0° 23° (NNE) 3,257 9.1 -12.5°
